Location: Borovka
(49.7741°N, 14.5280°E)
Time: 15:21:25
(UTC+00:00)

Thor Agena Rocket - Pass Details

Date: 12 February 2026
Orbit: 755 x 801 km, 99.1° (Epoch: 7 March)

Event Time Altitude Azimuth Distance (km) Brightness Sun altitude
Rises 18:11:15 0° 220° (SW) 3,224 7.3 -19.1°
Reaches altitude 10° 18:15:04 10° 250° (WSW) 2,315 7.0 -19.8°
Maximum altitude 18:17:07 12° 274° (W) 2,165 7.0 -20.1°
Drops below altitude 10° 18:19:11 10° 298° (WNW) 2,334 6.9 -20.4°
Sets 18:23:06 0° 328° (NNW) 3,281 7.3 -21.1°
